contact:dominique.lefevre@mio.osupytheas.fr, maurice.libes@osupytheas.fr, didier.mallarino@osupytheas.fr
Project:EMSO http://www.emso-fr.org/EMSO-France
Depth: 2436.0 m
Title:EMSO Ligure Ouest : Data MII capteur MICROCAT
DateTime_Computer,Latitude,Longitude,Temperature,Conductivity,Pressure,DateTime_Instrument
DateTime_Computer,Latitude,Longitude,degC,S m-1,dbar,DateTime_Instrument
2021-11-27T00:02:22Z,42.805,6.029,13.2996,4.60015,2470.38,2021-11-27T02:03:49Z
2021-11-27T00:05:26Z,42.805,6.029,13.2993,4.60016,2470.38,2021-11-27T02:06:53Z
2021-11-27T00:08:29Z,42.805,6.029,13.2995,4.60015,2470.437,2021-11-27T02:09:56Z
2021-11-27T00:11:32Z,42.805,6.029,13.2992,4.60016,2470.353,2021-11-27T02:12:59Z
2021-11-27T00:14:35Z,42.805,6.029,13.2994,4.60016,2470.39,2021-11-27T02:16:02Z
2021-11-27T00:17:38Z,42.805,6.029,13.2992,4.60014,2470.39,2021-11-27T02:19:05Z
2021-11-27T00:20:41Z,42.805,6.029,13.2993,4.60014,2470.366,2021-11-27T02:22:08Z
2021-11-27T00:23:44Z,42.805,6.029,13.2990,4.60016,2470.38,2021-11-27T02:25:11Z
2021-11-27T00:26:47Z,42.805,6.029,13.2993,4.60015,2470.366,2021-11-27T02:28:14Z
2021-11-27T00:29:51Z,42.805,6.029,13.2994,4.60015,2470.404,2021-11-27T02:31:18Z
2021-11-27T00:32:54Z,42.805,6.029,13.2993,4.60016,2470.343,2021-11-27T02:34:21Z
2021-11-27T00:35:57Z,42.805,6.029,13.2991,4.60015,2470.39,2021-11-27T02:37:24Z
2021-11-27T00:39:00Z,42.805,6.029,13.2994,4.60015,2470.38,2021-11-27T02:40:27Z
2021-11-27T00:42:03Z,42.805,6.029,13.2994,4.60014,2470.366,2021-11-27T02:43:30Z
2021-11-27T00:45:06Z,42.805,6.029,13.2993,4.60016,2470.366,2021-11-27T02:46:33Z
2021-11-27T00:48:09Z,42.805,6.029,13.2993,4.60014,2470.366,2021-11-27T02:49:36Z
2021-11-27T00:51:12Z,42.805,6.029,13.2994,4.60013,2470.366,2021-11-27T02:52:39Z
2021-11-27T00:54:16Z,42.805,6.029,13.2993,4.60014,2470.404,2021-11-27T02:55:43Z
2021-11-27T00:57:19Z,42.805,6.029,13.2997,4.60016,2470.38,2021-11-27T02:58:46Z
2021-11-27T01:00:22Z,42.805,6.029,13.2992,4.60016,2470.366,2021-11-27T03:01:49Z
2021-11-27T01:03:25Z,42.805,6.029,13.2992,4.60015,2470.357,2021-11-27T03:04:52Z
2021-11-27T01:06:28Z,42.805,6.029,13.2991,4.60014,2470.366,2021-11-27T03:07:55Z
2021-11-27T01:09:31Z,42.805,6.029,13.2995,4.60017,2470.39,2021-11-27T03:10:58Z
2021-11-27T01:12:34Z,42.805,6.029,13.2993,4.60015,2470.38,2021-11-27T03:14:01Z
2021-11-27T01:15:37Z,42.805,6.029,13.2998,4.60017,2470.343,2021-11-27T03:17:04Z
2021-11-27T01:18:41Z,42.805,6.029,13.2991,4.60016,2470.366,2021-11-27T03:20:08Z
2021-11-27T01:21:44Z,42.805,6.029,13.2993,4.60019,2470.343,2021-11-27T03:23:11Z
2021-11-27T01:24:47Z,42.805,6.029,13.2991,4.60016,2470.39,2021-11-27T03:26:14Z
2021-11-27T01:27:50Z,42.805,6.029,13.2993,4.60016,2470.366,2021-11-27T03:29:17Z
2021-11-27T01:30:53Z,42.805,6.029,13.2998,4.60015,2470.38,2021-11-27T03:32:20Z
2021-11-27T01:33:56Z,42.805,6.029,13.2994,4.60017,2470.357,2021-11-27T03:35:23Z
2021-11-27T01:36:59Z,42.805,6.029,13.2995,4.60016,2470.357,2021-11-27T03:38:26Z
2021-11-27T01:40:02Z,42.805,6.029,13.2993,4.60013,2470.343,2021-11-27T03:41:29Z
2021-11-27T01:43:06Z,42.805,6.029,13.2995,4.60015,2470.366,2021-11-27T03:44:32Z
2021-11-27T01:46:09Z,42.805,6.029,13.2994,4.60016,2470.366,2021-11-27T03:47:36Z
2021-11-27T01:49:12Z,42.805,6.029,13.2991,4.60017,2470.366,2021-11-27T03:50:39Z
2021-11-27T01:52:15Z,42.805,6.029,13.2991,4.60016,2470.357,2021-11-27T03:53:42Z
2021-11-27T01:55:18Z,42.805,6.029,13.2991,4.60014,2470.38,2021-11-27T03:56:45Z
2021-11-27T01:58:21Z,42.805,6.029,13.2995,4.60015,2470.366,2021-11-27T03:59:48Z
2021-11-27T02:01:24Z,42.805,6.029,13.2992,4.60015,2470.353,2021-11-27T04:02:51Z
2021-11-27T02:04:27Z,42.805,6.029,13.2993,4.60014,2470.357,2021-11-27T04:05:54Z
2021-11-27T02:07:31Z,42.805,6.029,13.2992,4.60014,2470.366,2021-11-27T04:08:57Z
2021-11-27T02:10:34Z,42.805,6.029,13.2994,4.60014,2470.38,2021-11-27T04:12:01Z
2021-11-27T02:13:37Z,42.805,6.029,13.2993,4.60014,2470.366,2021-11-27T04:15:04Z
2021-11-27T02:16:40Z,42.805,6.029,13.2992,4.60014,2470.343,2021-11-27T04:18:07Z
2021-11-27T02:19:43Z,42.805,6.029,13.2996,4.60013,2470.366,2021-11-27T04:21:10Z
2021-11-27T02:22:46Z,42.805,6.029,13.2992,4.60014,2470.334,2021-11-27T04:24:13Z
2021-11-27T02:25:49Z,42.805,6.029,13.2991,4.60014,2470.366,2021-11-27T04:27:16Z
2021-11-27T02:28:52Z,42.805,6.029,13.2991,4.60015,2470.38,2021-11-27T04:30:19Z
2021-11-27T02:31:55Z,42.805,6.029,13.2991,4.60016,2470.343,2021-11-27T04:33:22Z
2021-11-27T02:34:59Z,42.805,6.029,13.2991,4.60016,2470.366,2021-11-27T04:36:26Z
2021-11-27T02:38:02Z,42.805,6.029,13.2994,4.60015,2470.334,2021-11-27T04:39:29Z
2021-11-27T02:41:05Z,42.805,6.029,13.2993,4.60015,2470.366,2021-11-27T04:42:32Z
2021-11-27T02:44:08Z,42.805,6.029,13.2991,4.60014,2470.366,2021-11-27T04:45:35Z
2021-11-27T02:47:11Z,42.805,6.029,13.2993,4.60016,2470.343,2021-11-27T04:48:38Z
2021-11-27T02:50:14Z,42.805,6.029,13.2995,4.60016,2470.366,2021-11-27T04:51:41Z
2021-11-27T02:53:17Z,42.805,6.029,13.2991,4.60014,2470.357,2021-11-27T04:54:44Z
2021-11-27T02:56:20Z,42.805,6.029,13.2994,4.60016,2470.38,2021-11-27T04:57:47Z
2021-11-27T02:59:24Z,42.805,6.029,13.2996,4.60014,2470.32,2021-11-27T05:00:51Z
2021-11-27T03:02:27Z,42.805,6.029,13.2993,4.60016,2470.357,2021-11-27T05:03:54Z
2021-11-27T03:05:30Z,42.805,6.029,13.2990,4.60015,2470.32,2021-11-27T05:06:57Z
2021-11-27T03:08:33Z,42.805,6.029,13.2991,4.60014,2470.366,2021-11-27T05:10:00Z
2021-11-27T03:11:36Z,42.805,6.029,13.2993,4.60015,2470.343,2021-11-27T05:13:03Z
2021-11-27T03:14:39Z,42.805,6.029,13.2992,4.60014,2470.32,2021-11-27T05:16:06Z
2021-11-27T03:17:42Z,42.805,6.029,13.2994,4.60016,2470.357,2021-11-27T05:19:09Z
2021-11-27T03:20:45Z,42.805,6.029,13.2995,4.60014,2470.38,2021-11-27T05:22:12Z
2021-11-27T03:23:49Z,42.805,6.029,13.2996,4.60016,2470.334,2021-11-27T05:25:16Z
2021-11-27T03:26:52Z,42.805,6.029,13.2995,4.60015,2470.343,2021-11-27T05:28:19Z
2021-11-27T03:29:55Z,42.805,6.029,13.2991,4.60014,2470.343,2021-11-27T05:31:22Z
2021-11-27T03:32:58Z,42.805,6.029,13.2993,4.60014,2470.343,2021-11-27T05:34:25Z
2021-11-27T03:36:01Z,42.805,6.029,13.2993,4.60014,2470.343,2021-11-27T05:37:28Z
2021-11-27T03:39:04Z,42.805,6.029,13.2993,4.60014,2470.343,2021-11-27T05:40:31Z
2021-11-27T03:42:07Z,42.805,6.029,13.2996,4.60015,2470.343,2021-11-27T05:43:34Z
2021-11-27T03:45:10Z,42.805,6.029,13.2993,4.60014,2470.357,2021-11-27T05:46:37Z
2021-11-27T03:48:14Z,42.805,6.029,13.2996,4.60014,2470.32,2021-11-27T05:49:41Z
2021-11-27T03:51:17Z,42.805,6.029,13.2993,4.60016,2470.343,2021-11-27T05:52:44Z
2021-11-27T03:54:20Z,42.805,6.029,13.2993,4.60015,2470.32,2021-11-27T05:55:47Z
2021-11-27T03:57:23Z,42.805,6.029,13.2993,4.60017,2470.357,2021-11-27T05:58:50Z
2021-11-27T04:00:26Z,42.805,6.029,13.2996,4.60016,2470.343,2021-11-27T06:01:53Z
2021-11-27T04:03:29Z,42.805,6.029,13.2993,4.60014,2470.334,2021-11-27T06:04:56Z
2021-11-27T04:06:32Z,42.805,6.029,13.2996,4.60015,2470.334,2021-11-27T06:07:59Z
2021-11-27T04:09:35Z,42.805,6.029,13.2996,4.60016,2470.357,2021-11-27T06:11:02Z
2021-11-27T04:12:39Z,42.805,6.029,13.2996,4.60015,2470.32,2021-11-27T06:14:06Z
2021-11-27T04:15:42Z,42.805,6.029,13.2994,4.60014,2470.297,2021-11-27T06:17:09Z
2021-11-27T04:18:45Z,42.805,6.029,13.2994,4.60016,2470.32,2021-11-27T06:20:12Z
2021-11-27T04:21:48Z,42.805,6.029,13.2994,4.60014,2470.357,2021-11-27T06:23:15Z
2021-11-27T04:24:51Z,42.805,6.029,13.2993,4.60016,2470.297,2021-11-27T06:26:18Z
2021-11-27T04:27:54Z,42.805,6.029,13.2995,4.60015,2470.334,2021-11-27T06:29:21Z
2021-11-27T04:30:57Z,42.805,6.029,13.2991,4.60015,2470.297,2021-11-27T06:32:24Z
2021-11-27T04:34:00Z,42.805,6.029,13.2993,4.60014,2470.334,2021-11-27T06:35:27Z
2021-11-27T04:37:04Z,42.805,6.029,13.2998,4.60016,2470.32,2021-11-27T06:38:31Z
2021-11-27T04:40:07Z,42.805,6.029,13.2996,4.60015,2470.343,2021-11-27T06:41:34Z
2021-11-27T04:43:10Z,42.805,6.029,13.2994,4.60014,2470.334,2021-11-27T06:44:37Z
2021-11-27T04:46:13Z,42.805,6.029,13.2993,4.60014,2470.32,2021-11-27T06:47:40Z
2021-11-27T04:49:16Z,42.805,6.029,13.2996,4.60016,2470.32,2021-11-27T06:50:43Z
2021-11-27T04:52:19Z,42.805,6.029,13.2994,4.60014,2470.32,2021-11-27T06:53:46Z
2021-11-27T04:55:22Z,42.805,6.029,13.2989,4.60015,2470.343,2021-11-27T06:56:49Z
2021-11-27T04:58:25Z,42.805,6.029,13.2992,4.60014,2470.32,2021-11-27T06:59:52Z
2021-11-27T05:01:29Z,42.805,6.029,13.2995,4.60013,2470.31,2021-11-27T07:02:56Z
2021-11-27T05:04:32Z,42.805,6.029,13.2996,4.60013,2470.343,2021-11-27T07:05:59Z
2021-11-27T05:07:35Z,42.805,6.029,13.2993,4.60014,2470.343,2021-11-27T07:09:02Z
2021-11-27T05:10:38Z,42.805,6.029,13.2995,4.60016,2470.32,2021-11-27T07:12:05Z
2021-11-27T05:13:41Z,42.805,6.029,13.2992,4.60015,2470.334,2021-11-27T07:15:08Z
2021-11-27T05:16:44Z,42.805,6.029,13.2996,4.60016,2470.297,2021-11-27T07:18:11Z
2021-11-27T05:19:47Z,42.805,6.029,13.2996,4.60016,2470.31,2021-11-27T07:21:14Z
2021-11-27T05:22:50Z,42.805,6.029,13.2998,4.60014,2470.32,2021-11-27T07:24:17Z
2021-11-27T05:25:54Z,42.805,6.029,13.2993,4.60014,2470.32,2021-11-27T07:27:20Z
2021-11-27T05:28:57Z,42.805,6.029,13.2994,4.60014,2470.32,2021-11-27T07:30:24Z
2021-11-27T05:32:00Z,42.805,6.029,13.2993,4.60015,2470.32,2021-11-27T07:33:27Z
2021-11-27T05:35:03Z,42.805,6.029,13.2994,4.60014,2470.33,2021-11-27T07:36:30Z
2021-11-27T05:38:06Z,42.805,6.029,13.2994,4.60014,2470.32,2021-11-27T07:39:33Z
2021-11-27T05:41:09Z,42.805,6.029,13.2993,4.60017,2470.343,2021-11-27T07:42:36Z
2021-11-27T05:44:12Z,42.805,6.029,13.2993,4.60014,2470.32,2021-11-27T07:45:39Z
2021-11-27T05:47:15Z,42.805,6.029,13.2991,4.60016,2470.31,2021-11-27T07:48:42Z
2021-11-27T05:50:19Z,42.805,6.029,13.2992,4.60016,2470.32,2021-11-27T07:51:45Z
2021-11-27T05:53:22Z,42.805,6.029,13.2993,4.60016,2470.334,2021-11-27T07:54:49Z
2021-11-27T05:56:25Z,42.805,6.029,13.2990,4.60015,2470.32,2021-11-27T07:57:52Z
2021-11-27T05:59:28Z,42.805,6.029,13.2994,4.60014,2470.366,2021-11-27T08:00:55Z
2021-11-27T06:02:31Z,42.805,6.029,13.2996,4.60014,2470.334,2021-11-27T08:03:58Z
2021-11-27T06:05:34Z,42.805,6.029,13.2994,4.60015,2470.334,2021-11-27T08:07:01Z
2021-11-27T06:08:37Z,42.805,6.029,13.2991,4.60013,2470.334,2021-11-27T08:10:04Z
2021-11-27T06:11:40Z,42.805,6.029,13.2995,4.60014,2470.297,2021-11-27T08:13:07Z
2021-11-27T06:14:43Z,42.805,6.029,13.2995,4.60014,2470.343,2021-11-27T08:16:10Z
2021-11-27T06:17:47Z,42.805,6.029,13.2996,4.60014,2470.357,2021-11-27T08:19:14Z
2021-11-27T06:20:50Z,42.805,6.029,13.2993,4.60014,2470.343,2021-11-27T08:22:17Z
2021-11-27T06:23:53Z,42.805,6.029,13.2993,4.60014,2470.343,2021-11-27T08:25:20Z
2021-11-27T06:26:56Z,42.805,6.029,13.2993,4.60014,2470.343,2021-11-27T08:28:23Z
2021-11-27T06:29:59Z,42.805,6.029,13.2996,4.60016,2470.32,2021-11-27T08:31:26Z
2021-11-27T06:33:02Z,42.805,6.029,13.2991,4.60014,2470.343,2021-11-27T08:34:29Z
2021-11-27T06:36:05Z,42.805,6.029,13.2993,4.60014,2470.366,2021-11-27T08:37:32Z
2021-11-27T06:39:08Z,42.805,6.029,13.2991,4.60014,2470.32,2021-11-27T08:40:35Z
2021-11-27T06:42:12Z,42.805,6.029,13.2996,4.60013,2470.334,2021-11-27T08:43:39Z
2021-11-27T06:45:15Z,42.805,6.029,13.2991,4.60014,2470.334,2021-11-27T08:46:42Z
2021-11-27T06:48:18Z,42.805,6.029,13.2993,4.60015,2470.357,2021-11-27T08:49:45Z
2021-11-27T06:51:21Z,42.805,6.029,13.2995,4.60014,2470.32,2021-11-27T08:52:48Z
2021-11-27T06:54:24Z,42.805,6.029,13.2996,4.60014,2470.343,2021-11-27T08:55:51Z
2021-11-27T06:57:27Z,42.805,6.029,13.2994,4.60014,2470.343,2021-11-27T08:58:54Z
2021-11-27T07:00:30Z,42.805,6.029,13.2991,4.60014,2470.32,2021-11-27T09:01:57Z
2021-11-27T07:03:33Z,42.805,6.029,13.2991,4.60013,2470.334,2021-11-27T09:05:00Z
2021-11-27T07:06:37Z,42.805,6.029,13.2996,4.60014,2470.366,2021-11-27T09:08:04Z
2021-11-27T07:09:40Z,42.805,6.029,13.2991,4.60014,2470.357,2021-11-27T09:11:07Z
2021-11-27T07:12:43Z,42.805,6.029,13.2993,4.60014,2470.357,2021-11-27T09:14:10Z
2021-11-27T07:15:46Z,42.805,6.029,13.2993,4.60014,2470.343,2021-11-27T09:17:13Z
2021-11-27T07:18:49Z,42.805,6.029,13.2993,4.60016,2470.32,2021-11-27T09:20:16Z
2021-11-27T07:21:52Z,42.805,6.029,13.2993,4.60016,2470.371,2021-11-27T09:23:19Z
2021-11-27T07:24:55Z,42.805,6.029,13.2993,4.60014,2470.366,2021-11-27T09:26:22Z
2021-11-27T07:27:58Z,42.805,6.029,13.2993,4.60013,2470.357,2021-11-27T09:29:25Z
2021-11-27T07:31:02Z,42.805,6.029,13.2991,4.60014,2470.39,2021-11-27T09:32:29Z
2021-11-27T07:34:05Z,42.805,6.029,13.2991,4.60015,2470.343,2021-11-27T09:35:32Z
2021-11-27T07:37:08Z,42.805,6.029,13.2993,4.60014,2470.357,2021-11-27T09:38:35Z
2021-11-27T07:40:11Z,42.805,6.029,13.2990,4.60014,2470.366,2021-11-27T09:41:38Z
2021-11-27T07:43:14Z,42.805,6.029,13.2997,4.60014,2470.366,2021-11-27T09:44:41Z
2021-11-27T07:46:17Z,42.805,6.029,13.2993,4.60014,2470.33,2021-11-27T09:47:44Z
2021-11-27T07:49:20Z,42.805,6.029,13.2991,4.60015,2470.343,2021-11-27T09:50:47Z
2021-11-27T07:52:23Z,42.805,6.029,13.2991,4.60014,2470.343,2021-11-27T09:53:50Z
2021-11-27T07:55:27Z,42.805,6.029,13.2995,4.60014,2470.366,2021-11-27T09:56:54Z
2021-11-27T07:58:30Z,42.805,6.029,13.2991,4.60015,2470.343,2021-11-27T09:59:57Z
2021-11-27T08:01:33Z,42.805,6.029,13.2994,4.60015,2470.343,2021-11-27T10:03:00Z
2021-11-27T08:04:36Z,42.805,6.029,13.2996,4.60015,2470.38,2021-11-27T10:06:03Z
2021-11-27T08:07:39Z,42.805,6.029,13.2991,4.60016,2470.38,2021-11-27T10:09:06Z
2021-11-27T08:10:42Z,42.805,6.029,13.2994,4.60014,2470.366,2021-11-27T10:12:09Z
2021-11-27T08:13:45Z,42.805,6.029,13.2993,4.60013,2470.38,2021-11-27T10:15:12Z
2021-11-27T08:16:48Z,42.805,6.029,13.2993,4.60014,2470.357,2021-11-27T10:18:15Z
2021-11-27T08:19:52Z,42.805,6.029,13.2992,4.60014,2470.366,2021-11-27T10:21:19Z
2021-11-27T08:22:55Z,42.805,6.029,13.2992,4.60016,2470.366,2021-11-27T10:24:22Z
2021-11-27T08:25:58Z,42.805,6.029,13.2992,4.60014,2470.404,2021-11-27T10:27:25Z
2021-11-27T08:29:01Z,42.805,6.029,13.2997,4.60014,2470.366,2021-11-27T10:30:28Z
2021-11-27T08:32:04Z,42.805,6.029,13.2997,4.60014,2470.38,2021-11-27T10:33:31Z
2021-11-27T08:35:07Z,42.805,6.029,13.2990,4.60015,2470.39,2021-11-27T10:36:34Z
2021-11-27T08:38:10Z,42.805,6.029,13.2992,4.60014,2470.39,2021-11-27T10:39:37Z
2021-11-27T08:41:13Z,42.805,6.029,13.2992,4.60015,2470.39,2021-11-27T10:42:40Z
2021-11-27T08:44:17Z,42.805,6.029,13.2991,4.60015,2470.404,2021-11-27T10:45:44Z
2021-11-27T08:47:20Z,42.805,6.029,13.2991,4.60014,2470.366,2021-11-27T10:48:47Z
2021-11-27T08:50:23Z,42.805,6.029,13.2994,4.60015,2470.39,2021-11-27T10:51:50Z
2021-11-27T08:53:26Z,42.805,6.029,13.2991,4.60014,2470.39,2021-11-27T10:54:53Z
2021-11-27T08:56:29Z,42.805,6.029,13.2995,4.60014,2470.404,2021-11-27T10:57:56Z
2021-11-27T08:59:32Z,42.805,6.029,13.2991,4.60015,2470.366,2021-11-27T11:00:59Z
2021-11-27T09:02:35Z,42.805,6.029,13.2994,4.60015,2470.366,2021-11-27T11:04:02Z
2021-11-27T09:05:38Z,42.805,6.029,13.2993,4.60015,2470.427,2021-11-27T11:07:05Z
2021-11-27T09:08:42Z,42.805,6.029,13.2995,4.60014,2470.413,2021-11-27T11:10:09Z
2021-11-27T09:11:45Z,42.805,6.029,13.2990,4.60017,2470.39,2021-11-27T11:13:12Z
2021-11-27T09:14:48Z,42.805,6.029,13.2991,4.60016,2470.427,2021-11-27T11:16:15Z
2021-11-27T09:17:51Z,42.805,6.029,13.2994,4.60014,2470.38,2021-11-27T11:19:18Z
2021-11-27T09:20:54Z,42.805,6.029,13.2992,4.60015,2470.413,2021-11-27T11:22:21Z
2021-11-27T09:23:57Z,42.805,6.029,13.2994,4.60014,2470.404,2021-11-27T11:25:24Z
2021-11-27T09:27:00Z,42.805,6.029,13.2993,4.60012,2470.39,2021-11-27T11:28:27Z
2021-11-27T09:30:04Z,42.805,6.029,13.2996,4.60014,2470.427,2021-11-27T11:31:31Z
2021-11-27T09:33:07Z,42.805,6.029,13.2996,4.60015,2470.427,2021-11-27T11:34:34Z
2021-11-27T09:36:10Z,42.805,6.029,13.2996,4.60016,2470.427,2021-11-27T11:37:37Z
2021-11-27T09:39:13Z,42.805,6.029,13.2997,4.60013,2470.413,2021-11-27T11:40:40Z
2021-11-27T09:42:16Z,42.805,6.029,13.2994,4.60014,2470.413,2021-11-27T11:43:43Z
2021-11-27T09:45:19Z,42.805,6.029,13.2993,4.60014,2470.404,2021-11-27T11:46:46Z
2021-11-27T09:48:22Z,42.805,6.029,13.2993,4.60015,2470.413,2021-11-27T11:49:49Z
2021-11-27T09:51:25Z,42.805,6.029,13.2993,4.60015,2470.427,2021-11-27T11:52:52Z
2021-11-27T09:54:29Z,42.805,6.029,13.2991,4.60014,2470.413,2021-11-27T11:55:56Z
2021-11-27T09:57:32Z,42.805,6.029,13.2995,4.60015,2470.45,2021-11-27T11:58:59Z
2021-11-27T10:00:35Z,42.805,6.029,13.2996,4.60015,2470.437,2021-11-27T12:02:02Z
2021-11-27T10:03:38Z,42.805,6.029,13.2993,4.60015,2470.45,2021-11-27T12:05:05Z
2021-11-27T10:06:41Z,42.805,6.029,13.2996,4.60015,2470.437,2021-11-27T12:08:08Z
2021-11-27T10:09:44Z,42.805,6.029,13.2992,4.60017,2470.45,2021-11-27T12:11:11Z
2021-11-27T10:12:47Z,42.805,6.029,13.2993,4.60016,2470.413,2021-11-27T12:14:14Z
2021-11-27T10:15:50Z,42.805,6.029,13.2994,4.60015,2470.413,2021-11-27T12:17:17Z
2021-11-27T10:18:54Z,42.805,6.029,13.2995,4.60016,2470.413,2021-11-27T12:20:21Z
2021-11-27T10:21:57Z,42.805,6.029,13.2994,4.60015,2470.423,2021-11-27T12:23:24Z
2021-11-27T10:25:00Z,42.805,6.029,13.2994,4.60014,2470.437,2021-11-27T12:26:27Z
2021-11-27T10:28:03Z,42.805,6.029,13.2992,4.60016,2470.46,2021-11-27T12:29:30Z
2021-11-27T10:31:06Z,42.805,6.029,13.2996,4.60014,2470.437,2021-11-27T12:32:33Z
2021-11-27T10:34:09Z,42.805,6.029,13.2995,4.60014,2470.45,2021-11-27T12:35:36Z
2021-11-27T10:37:12Z,42.805,6.029,13.2992,4.60014,2470.45,2021-11-27T12:38:39Z
2021-11-27T10:40:15Z,42.805,6.029,13.2993,4.60014,2470.46,2021-11-27T12:41:42Z
2021-11-27T10:43:19Z,42.805,6.029,13.2993,4.60014,2470.437,2021-11-27T12:44:46Z
2021-11-27T10:46:22Z,42.805,6.029,13.2995,4.60019,2470.46,2021-11-27T12:47:49Z
2021-11-27T10:49:25Z,42.805,6.029,13.2996,4.60016,2470.446,2021-11-27T12:50:52Z
2021-11-27T10:52:28Z,42.805,6.029,13.2997,4.60016,2470.46,2021-11-27T12:53:55Z
2021-11-27T10:55:31Z,42.805,6.029,13.2996,4.60016,2470.497,2021-11-27T12:56:58Z
2021-11-27T10:58:34Z,42.805,6.029,13.2992,4.60016,2470.474,2021-11-27T13:00:01Z
2021-11-27T11:01:37Z,42.805,6.029,13.2993,4.60016,2470.497,2021-11-27T13:03:04Z
2021-11-27T11:04:40Z,42.805,6.029,13.2993,4.60016,2470.483,2021-11-27T13:06:07Z
2021-11-27T11:07:44Z,42.805,6.029,13.2994,4.60016,2470.45,2021-11-27T13:09:11Z
2021-11-27T11:10:47Z,42.805,6.029,13.2991,4.60014,2470.497,2021-11-27T13:12:14Z
2021-11-27T11:13:50Z,42.805,6.029,13.2994,4.60014,2470.497,2021-11-27T13:15:17Z
2021-11-27T11:16:53Z,42.805,6.029,13.2994,4.60016,2470.46,2021-11-27T13:18:20Z
2021-11-27T11:19:56Z,42.805,6.029,13.2993,4.60014,2470.474,2021-11-27T13:21:23Z
2021-11-27T11:22:59Z,42.805,6.029,13.2991,4.60014,2470.474,2021-11-27T13:24:26Z
2021-11-27T11:26:02Z,42.805,6.029,13.2993,4.60016,2470.483,2021-11-27T13:27:29Z
2021-11-27T11:29:06Z,42.805,6.029,13.2994,4.60016,2470.437,2021-11-27T13:30:33Z
2021-11-27T11:32:09Z,42.805,6.029,13.2996,4.60019,2470.474,2021-11-27T13:33:36Z
2021-11-27T11:35:12Z,42.805,6.029,13.2995,4.60014,2470.507,2021-11-27T13:36:39Z
2021-11-27T11:38:15Z,42.805,6.029,13.2990,4.60014,2470.507,2021-11-27T13:39:42Z
2021-11-27T11:41:18Z,42.805,6.029,13.2994,4.60014,2470.46,2021-11-27T13:42:45Z
2021-11-27T11:44:21Z,42.805,6.029,13.2993,4.60015,2470.474,2021-11-27T13:45:48Z
2021-11-27T11:47:24Z,42.805,6.029,13.2993,4.60017,2470.46,2021-11-27T13:48:51Z
2021-11-27T11:50:27Z,42.805,6.029,13.2996,4.60019,2470.483,2021-11-27T13:51:54Z
2021-11-27T11:53:31Z,42.805,6.029,13.2994,4.60017,2470.46,2021-11-27T13:54:58Z
2021-11-27T11:56:34Z,42.805,6.029,13.2995,4.60015,2470.46,2021-11-27T13:58:01Z
2021-11-27T11:59:37Z,42.805,6.029,13.2991,4.60014,2470.46,2021-11-27T14:01:04Z
2021-11-27T12:02:40Z,42.805,6.029,13.2993,4.60014,2470.427,2021-11-27T14:04:07Z
2021-11-27T12:05:43Z,42.805,6.029,13.2991,4.60015,2470.497,2021-11-27T14:07:10Z
2021-11-27T12:08:46Z,42.805,6.029,13.2996,4.60017,2470.46,2021-11-27T14:10:13Z
2021-11-27T12:11:49Z,42.805,6.029,13.2992,4.60016,2470.46,2021-11-27T14:13:16Z
2021-11-27T12:14:52Z,42.805,6.029,13.2996,4.60016,2470.474,2021-11-27T14:16:19Z
2021-11-27T12:17:56Z,42.805,6.029,13.2997,4.60016,2470.483,2021-11-27T14:19:23Z
2021-11-27T12:20:59Z,42.805,6.029,13.2995,4.60016,2470.46,2021-11-27T14:22:26Z
2021-11-27T12:24:02Z,42.805,6.029,13.2991,4.60014,2470.483,2021-11-27T14:25:29Z
2021-11-27T12:27:05Z,42.805,6.029,13.2996,4.60014,2470.46,2021-11-27T14:28:32Z
2021-11-27T12:30:08Z,42.805,6.029,13.2994,4.60015,2470.483,2021-11-27T14:31:35Z
2021-11-27T12:33:11Z,42.805,6.029,13.2993,4.60014,2470.46,2021-11-27T14:34:38Z
2021-11-27T12:36:14Z,42.805,6.029,13.2992,4.60015,2470.46,2021-11-27T14:37:41Z
2021-11-27T12:39:17Z,42.805,6.029,13.2994,4.60016,2470.46,2021-11-27T14:40:44Z
2021-11-27T12:42:21Z,42.805,6.029,13.2993,4.60016,2470.437,2021-11-27T14:43:48Z
2021-11-27T12:45:24Z,42.805,6.029,13.2992,4.60016,2470.507,2021-11-27T14:46:51Z
2021-11-27T12:48:27Z,42.805,6.029,13.2992,4.60013,2470.483,2021-11-27T14:49:54Z
2021-11-27T12:51:30Z,42.805,6.029,13.2994,4.60014,2470.46,2021-11-27T14:52:57Z
2021-11-27T12:54:33Z,42.805,6.029,13.2993,4.60016,2470.483,2021-11-27T14:56:00Z
2021-11-27T12:57:36Z,42.805,6.029,13.2993,4.60016,2470.46,2021-11-27T14:59:03Z
2021-11-27T13:00:39Z,42.805,6.029,13.2993,4.60013,2470.437,2021-11-27T15:02:06Z
2021-11-27T13:03:42Z,42.805,6.029,13.2991,4.60015,2470.483,2021-11-27T15:05:09Z
2021-11-27T13:06:46Z,42.805,6.029,13.2998,4.60016,2470.46,2021-11-27T15:08:13Z
2021-11-27T13:09:49Z,42.805,6.029,13.2992,4.60014,2470.483,2021-11-27T15:11:16Z
2021-11-27T13:12:52Z,42.805,6.029,13.2991,4.60014,2470.46,2021-11-27T15:14:19Z
2021-11-27T13:15:55Z,42.805,6.029,13.2995,4.60015,2470.483,2021-11-27T15:17:22Z
2021-11-27T13:18:58Z,42.805,6.029,13.2988,4.60014,2470.46,2021-11-27T15:20:25Z
2021-11-27T13:22:01Z,42.805,6.029,13.2993,4.60016,2470.483,2021-11-27T15:23:28Z
2021-11-27T13:25:04Z,42.805,6.029,13.2992,4.60014,2470.474,2021-11-27T15:26:31Z
2021-11-27T13:28:08Z,42.805,6.029,13.2992,4.60016,2470.483,2021-11-27T15:29:35Z
2021-11-27T13:31:11Z,42.805,6.029,13.2990,4.60016,2470.483,2021-11-27T15:32:38Z
2021-11-27T13:34:14Z,42.805,6.029,13.2991,4.60015,2470.46,2021-11-27T15:35:41Z
2021-11-27T13:37:17Z,42.805,6.029,13.2991,4.60015,2470.46,2021-11-27T15:38:44Z
2021-11-27T13:40:20Z,42.805,6.029,13.2994,4.60016,2470.46,2021-11-27T15:41:47Z
2021-11-27T13:43:23Z,42.805,6.029,13.2996,4.60017,2470.45,2021-11-27T15:44:50Z
2021-11-27T13:46:26Z,42.805,6.029,13.2995,4.60016,2470.483,2021-11-27T15:47:53Z
2021-11-27T13:49:29Z,42.805,6.029,13.2993,4.60014,2470.46,2021-11-27T15:50:56Z
2021-11-27T13:52:33Z,42.805,6.029,13.2994,4.60015,2470.46,2021-11-27T15:54:00Z
2021-11-27T13:55:36Z,42.805,6.029,13.2990,4.60015,2470.483,2021-11-27T15:57:03Z
2021-11-27T13:58:39Z,42.805,6.029,13.2992,4.60016,2470.45,2021-11-27T16:00:06Z
2021-11-27T14:01:42Z,42.805,6.029,13.2995,4.60014,2470.483,2021-11-27T16:03:09Z
2021-11-27T14:04:45Z,42.805,6.029,13.2996,4.60015,2470.46,2021-11-27T16:06:12Z
2021-11-27T14:07:48Z,42.805,6.029,13.2996,4.60014,2470.474,2021-11-27T16:09:15Z
2021-11-27T14:10:51Z,42.805,6.029,13.2995,4.60016,2470.46,2021-11-27T16:12:18Z
2021-11-27T14:13:54Z,42.805,6.029,13.2992,4.60016,2470.46,2021-11-27T16:15:21Z
2021-11-27T14:16:58Z,42.805,6.029,13.2996,4.60017,2470.46,2021-11-27T16:18:25Z
2021-11-27T14:20:01Z,42.805,6.029,13.2994,4.60016,2470.474,2021-11-27T16:21:28Z
2021-11-27T14:23:04Z,42.805,6.029,13.2993,4.60014,2470.437,2021-11-27T16:24:31Z
2021-11-27T14:26:07Z,42.805,6.029,13.2993,4.60014,2470.483,2021-11-27T16:27:34Z
2021-11-27T14:29:10Z,42.805,6.029,13.2993,4.60016,2470.474,2021-11-27T16:30:37Z
2021-11-27T14:32:13Z,42.805,6.029,13.2992,4.60014,2470.45,2021-11-27T16:33:40Z
2021-11-27T14:35:16Z,42.805,6.029,13.2991,4.60014,2470.45,2021-11-27T16:36:43Z
2021-11-27T14:38:19Z,42.805,6.029,13.2990,4.60014,2470.437,2021-11-27T16:39:46Z
2021-11-27T14:41:23Z,42.805,6.029,13.2991,4.60014,2470.46,2021-11-27T16:42:50Z
2021-11-27T14:44:26Z,42.805,6.029,13.2993,4.60016,2470.413,2021-11-27T16:45:53Z
2021-11-27T14:47:29Z,42.805,6.029,13.2993,4.60016,2470.437,2021-11-27T16:48:56Z
2021-11-27T14:50:32Z,42.805,6.029,13.2991,4.60016,2470.437,2021-11-27T16:51:59Z
2021-11-27T14:53:35Z,42.805,6.029,13.2993,4.60016,2470.437,2021-11-27T16:55:02Z
2021-11-27T14:56:38Z,42.805,6.029,13.2993,4.60013,2470.45,2021-11-27T16:58:05Z
2021-11-27T14:59:41Z,42.805,6.029,13.2993,4.60014,2470.46,2021-11-27T17:01:08Z
2021-11-27T15:02:45Z,42.805,6.029,13.2995,4.60014,2470.437,2021-11-27T17:04:12Z